Location: Middle Street
(51.7167°N, 0.0333°E)
Time: 02:03:08
(UTC+00:00)

ATLAS 3B R/B - Pass Details

Date: 20 January 2021
Orbit: 1006 x 1189 km, 63.8° (Epoch: 26 February)

Event Time Altitude Azimuth Distance (km) Brightness Sun altitude
Rises 16:56:57 0° 315° (NW) 3,850 5.9 -4.8°
Reaches altitude 10° 16:59:34 10° 312° (NW) 2,917 5.3 -5.1°
Maximum altitude 17:06:22 62° 234° (SW) 1,234 3.4 -6.1°
Drops below altitude 10° 17:13:28 10° 156° (SSE) 3,033 5.1 -7.1°
Sets 17:16:15 0° 153° (SSE) 4,013 5.7 -7.5°
